DateTimeUTC,F1_A11,F1_S11,BsB_S11,BsG_S11,BsR_S11,BbsB_S11,BbsG_S11,BbsR_S11,BaB_A11,BaG_A11,BaR_A11,Tu_S11,T_S11,Uu_S11,U_S11,P_S11,T1_A11
2021-08-19T13:00:00Z,00000200,20000000,,,,,,,0000.10,-000.44,-000.55,20.5,26.9,15.4,10.5,0675.8,31.2
2021-08-19T13:01:00Z,00000200,20000000,,,,,,,-000.14,0000.25,0000.21,20.5,26.9,15.4,10.5,0675.8,31.2
2021-08-19T13:02:00Z,00000200,20000000,,,,,,,0000.11,-000.24,0000.25,20.6,26.9,15.3,10.5,0675.8,31.2
2021-08-19T13:03:00Z,00000200,60000000,,,,,,,-000.10,0000.22,0000.03,20.6,26.9,15.3,10.5,0675.8,31.2
2021-08-19T13:04:00Z,00000200,40000000,0000.25,0000.08,0000.28,0000.13,0000.16,-000.14,0000.10,-000.04,-000.09,20.7,26.8,15.2,10.6,0676.7,31.2
2021-08-19T13:05:00Z,00000200,00000000,0000.61,0000.03,0000.28,0000.02,0000.10,-000.10,-000.10,0000.11,-000.15,20.8,26.8,15.1,10.5,0676.8,31.2
2021-08-19T13:06:00Z,00000200,00000000,-000.27,-000.14,-000.12,0000.86,-000.19,-000.30,0000.32,-000.35,0000.10,20.8,26.8,15.3,10.6,0676.8,31.2
2021-08-19T13:07:00Z,00000200,00000000,-000.23,-000.04,0000.33,0000.41,0000.31,0000.02,-000.27,0000.37,-000.09,20.8,26.8,15.3,10.6,0676.8,31.2
2021-08-19T13:08:00Z,00000200,00000000,0000.42,0000.06,0000.05,-000.26,0000.26,0000.22,0000.09,-000.11,0000.16,20.8,26.8,15.3,10.7,0676.8,31.2
2021-08-19T13:09:00Z,00000200,00000000,-000.23,0000.59,-000.01,0000.42,0000.27,-000.02,0000.28,-000.08,-000.22,20.8,26.8,15.1,10.6,0676.8,31.1
2021-08-19T13:10:00Z,00000200,00000000,0000.94,0000.13,0000.18,0000.51,0000.13,0000.21,-000.13,0000.33,0000.27,20.7,26.8,15.1,10.5,0676.8,31.2
2021-08-19T13:11:00Z,00000200,00000000,0000.35,-000.02,-000.04,0000.59,0000.10,-000.06,0000.17,-000.33,0000.36,20.8,26.8,15.2,10.6,0676.8,31.2
2021-08-19T13:12:00Z,00000200,00000000,0000.11,-000.13,-000.01,0000.23,0000.03,-000.04,-000.34,-000.24,-000.34,20.8,26.8,15.0,10.5,0676.9,31.2
2021-08-19T13:13:00Z,00000200,00000000,0000.01,0000.07,0000.26,0000.17,0000.40,-000.01,0000.07,0000.45,-000.12,20.8,26.8,15.2,10.6,0676.8,31.2
2021-08-19T13:14:00Z,00000200,00000000,0000.23,-000.01,0000.12,0000.58,0000.31,-000.08,0000.36,-000.26,0000.23,20.7,26.8,15.2,10.6,0676.8,31.2
2021-08-19T13:15:00Z,00000200,00000000,-000.28,0000.33,0000.19,-000.12,-000.24,-000.06,-000.18,0000.12,-000.04,20.8,26.8,15.2,10.6,0676.8,31.2
2021-08-19T13:16:00Z,00000200,00000000,0000.19,-000.12,-000.01,0000.66,-000.02,-000.14,0000.13,0000.03,-000.22,20.8,26.8,15.3,10.6,0676.8,31.2
2021-08-19T13:17:00Z,00000200,00000000,-000.20,-000.18,0000.16,0000.46,0000.13,-000.17,-000.18,0000.06,0000.33,20.8,26.8,15.4,10.7,0676.8,31.1
2021-08-19T13:18:00Z,00000200,00000000,0000.76,-000.09,-000.08,-000.05,0000.24,-000.00,0000.38,0000.41,-000.02,20.8,26.8,15.3,10.7,0676.8,31.1
2021-08-19T13:19:00Z,00000200,00000000,0000.13,0000.10,-000.13,0000.10,0000.01,-000.23,-000.31,-000.31,0000.11,20.8,26.8,15.4,10.7,0676.8,31.2
2021-08-19T13:20:00Z,00000200,00000000,0000.08,0000.36,-000.11,0000.11,0000.04,0000.40,0000.35,-000.01,-000.27,20.8,26.8,15.4,10.7,0676.8,31.2
2021-08-19T13:21:00Z,00000200,00000000,-000.07,0000.16,-000.20,0000.01,0000.41,-000.32,-000.09,0000.53,0000.12,20.8,26.8,15.4,10.7,0676.8,31.2
2021-08-19T13:22:00Z,00000200,00000000,-000.53,0000.25,-000.15,-000.23,0000.07,0000.14,0000.02,-000.37,0000.22,20.8,26.8,15.3,10.6,0676.8,31.2
2021-08-19T13:23:00Z,00000200,00000000,-000.10,-000.19,0000.03,0000.67,-000.11,-000.06,0000.11,-000.03,-000.19,20.8,26.8,15.3,10.7,0676.8,31.1
2021-08-19T13:24:00Z,00000200,00000000,0000.23,0000.30,0000.23,0000.27,0000.07,-000.05,-000.06,0000.22,0000.43,20.8,26.8,15.3,10.7,0676.8,31.1
2021-08-19T13:25:00Z,00000200,00000000,-000.35,0000.13,-000.38,-000.91,0000.16,-000.40,0000.28,0000.13,-000.17,20.8,26.8,15.3,10.6,0676.8,31.1
2021-08-19T13:26:00Z,00000200,00000000,0000.48,-000.08,0000.05,0000.23,0000.22,0000.17,-000.26,-000.13,0000.01,20.8,26.8,15.2,10.6,0676.8,31.1
2021-08-19T13:27:00Z,00000200,00000000,0000.15,0000.27,0000.06,-000.20,0000.16,0000.01,0000.24,0000.08,-000.03,20.8,26.8,15.1,10.5,0676.8,31.1
2021-08-19T13:28:00Z,00000200,00000000,-000.21,0000.04,0000.09,0000.40,0000.37,0000.08,-000.06,0000.15,-000.01,20.8,26.8,15.4,10.7,0676.9,31.1
2021-08-19T13:29:00Z,00000200,00000000,0000.67,0000.09,-000.27,0000.71,0000.11,-000.22,0000.29,-000.18,-000.15,20.8,26.8,15.4,10.7,0676.8,31.1
2021-08-19T13:30:00Z,00000200,00000000,-000.26,-000.03,0000.28,-000.48,0000.31,0000.19,-000.07,0000.45,0000.46,20.8,26.8,15.3,10.7,0676.8,31.1
2021-08-19T13:31:00Z,00000200,00000000,0000.26,0000.28,0000.17,0000.39,0000.15,-000.22,-000.10,-000.54,-000.08,20.8,26.8,15.4,10.7,0676.8,31.2
2021-08-19T13:32:00Z,00000200,00000000,0000.62,0000.18,0000.08,0000.64,0000.24,0000.16,0000.34,0000.20,-000.06,20.8,26.8,15.3,10.7,0676.9,31.2
2021-08-19T13:33:00Z,00000200,00000000,-000.22,0000.39,-000.03,-000.36,0000.10,0000.04,-000.40,-000.08,-000.18,20.8,26.8,15.4,10.7,0676.9,31.2
2021-08-19T13:34:00Z,00000200,00000000,0000.30,-000.29,-000.17,0000.54,-000.19,-000.39,0000.14,0000.36,-000.03,20.8,26.8,15.5,10.8,0676.9,31.1
2021-08-19T13:35:00Z,00000200,00000000,0000.72,0000.16,-000.11,0001.14,0000.34,0000.06,0000.19,0000.16,0000.32,20.8,26.8,15.6,10.8,0676.8,31.1
2021-08-19T13:36:00Z,00000200,00000000,-000.52,0000.13,-000.32,0000.64,-000.26,-000.28,0000.15,-000.05,0000.13,20.8,26.8,15.5,10.8,0676.8,31.1
2021-08-19T13:37:00Z,00000200,00000000,0000.23,0000.26,-000.09,0000.16,0000.03,-000.22,0000.20,-000.13,-000.26,20.8,26.8,15.5,10.8,0676.8,31.1
2021-08-19T13:38:00Z,00000200,00000000,0000.36,0000.17,0000.34,0000.22,0000.24,0000.02,-000.17,0000.26,0000.58,20.8,26.8,15.6,10.9,0676.9,31.1
2021-08-19T13:39:00Z,00000200,00000000,0000.59,0000.12,0000.35,0000.38,0000.10,0000.75,0000.23,-000.04,-000.19,20.8,26.8,15.7,11.0,0676.9,31.1
2021-08-19T13:40:00Z,00000200,00000000,0000.45,0000.57,0000.15,0000.44,0000.06,0000.07,0000.24,0000.21,0000.27,20.8,26.8,15.5,10.8,0676.9,31.1
2021-08-19T13:41:00Z,00000200,00000000,0000.40,0000.21,0000.13,0000.12,0000.13,0000.04,0000.11,0000.13,-000.29,20.8,26.8,15.6,10.8,0676.8,31.1
2021-08-19T13:42:00Z,00000200,00000000,-000.16,0000.26,0000.74,0000.02,0000.28,-000.00,-000.12,-000.05,0000.08,20.8,26.8,15.7,10.9,0676.8,31.1
2021-08-19T13:43:00Z,00000200,00000000,0000.75,0000.30,0000.46,0000.14,0000.05,0000.22,0000.05,-000.12,0000.21,20.8,26.8,15.7,11.0,0676.8,31.1
2021-08-19T13:44:00Z,00000200,00000000,0000.03,0000.35,0000.27,0000.99,0000.08,0000.10,0000.38,0000.64,0000.26,20.8,26.8,15.6,10.9,0676.8,31.1
2021-08-19T13:45:00Z,00000200,00000000,0001.54,0000.61,0000.19,0000.31,0000.22,0000.24,-000.26,-000.13,-000.09,20.8,26.8,15.6,10.8,0676.8,31.1
2021-08-19T13:46:00Z,00000200,00000000,0000.19,0000.15,0000.42,-000.01,0000.35,-000.04,0000.35,0000.16,0000.19,20.8,26.8,15.7,10.9,0676.8,31.1
2021-08-19T13:47:00Z,00000200,00000000,0000.40,0000.33,0000.16,-000.02,0000.12,-000.03,0000.19,-000.00,0000.08,20.8,26.8,15.6,10.9,0676.8,31.2
2021-08-19T13:48:00Z,00000200,00000000,0000.61,0000.46,0000.44,0000.12,0000.28,-000.12,0000.10,0000.42,0000.18,20.8,26.8,15.7,11.0,0676.8,31.2
2021-08-19T13:49:00Z,00000200,00000000,0000.28,0000.43,0000.13,0000.34,0000.19,-000.01,0000.32,-000.21,-000.20,20.8,26.8,15.6,10.9,0676.8,31.2
2021-08-19T13:50:00Z,00000200,00000000,0000.86,0000.72,0000.13,0000.94,0000.42,0000.01,0000.10,0000.34,0000.47,20.8,26.8,15.6,10.9,0676.8,31.2
2021-08-19T13:51:00Z,00000200,00000000,0000.74,0000.55,0000.10,0000.07,0000.03,0000.21,0000.31,0000.03,-000.16,20.8,26.8,15.4,10.7,0676.8,31.1
2021-08-19T13:52:00Z,00000200,00000000,0001.29,0000.48,0000.19,-000.14,0000.15,0000.15,0000.36,0000.25,0000.19,20.8,26.8,15.4,10.7,0676.8,31.1
2021-08-19T13:53:00Z,00000200,00000000,0002.14,0000.61,0000.22,0000.14,0000.34,-000.02,-000.16,0000.02,0000.25,20.8,26.8,15.4,10.7,0676.8,31.1
2021-08-19T13:54:00Z,00000200,00000000,0000.87,0000.16,0000.49,0000.32,0000.19,-000.12,0000.24,0000.25,0000.23,20.8,26.8,15.3,10.7,0676.8,31.2
2021-08-19T13:55:00Z,00000200,00000000,0000.86,0000.67,0000.34,0000.79,0000.37,0000.05,-000.13,0000.22,0000.00,20.8,26.8,15.3,10.6,0676.8,31.2
2021-08-19T13:56:00Z,00000200,00000000,0000.75,0000.37,0000.45,0000.42,0000.01,-000.12,0000.19,0000.16,0000.13,20.8,26.8,15.3,10.7,0676.8,31.2
2021-08-19T13:57:00Z,00000200,40000000,,,,,,,0000.62,0000.33,-000.08,20.8,26.8,15.6,10.9,0676.7,31.2
2021-08-19T13:58:00Z,00000200,60000000,,,,,,,-000.16,-000.06,0000.05,20.6,26.9,15.5,10.5,0675.8,31.2
2021-08-19T13:59:00Z,00000200,20000000,,,,,,,-000.14,-000.15,0000.03,20.5,27.0,15.4,10.5,0675.8,31.2
